Regional Weather Roundup
Issued by NWS Memphis, TN

Home | Current Version | Previous Version | Text Only | Print | Product List | Glossary On
Versions: 1 2 3 4 5 6 7 8 9 10 11 12 13 14 15 16 17 18 19 20 21 22 23 24 25 26 27 28 29 30 31 32 33 34 35 36 37 38 39 40 41 42 43 44 45 46 47 48 49 50
000
ASUS44 KMEG 300500
RWRMEG
MEMPHIS CWA HOURLY WEATHER ROUNDUP
NATIONAL WEATHER SERVICE MEMPHIS TN
1100 PM CST THU JAN 29 2015

...WEST TENNESSEE...

CITY           SKY/WX    TMP DP  RH WIND       PRES   REMARKS
MEMPHIS INTL   CLOUDY    44  28  53 N14G21    30.41R
NWS MEMPHIS      N/A     43 N/A N/A MISG        N/A
JACKSON        CLOUDY    43  29  57 N12       30.39R
LEXINGTON      CLOUDY    41  28  60 NW8       30.35R
SAVANNAH       CLOUDY    43  28  56 N10       30.36S
DYERSBURG      CLOUDY    43  21  42 N10G20    30.42R
UNION CITY     CLOUDY    39  30  70 N10       30.37S WCI  32
PARIS          CLOUDY    37  28  70 N6        30.36R WCI  33


...EASTERN ARKANSAS...

CITY           SKY/WX    TMP DP  RH WIND       PRES   REMARKS
JONESBORO      CLEAR     34  29  82 CALM      30.42S
WEST MEMPHIS   CLOUDY    42  32  67 N8        30.42R
BATESVILLE     CLEAR     37  27  65 W3        30.44R
WALNUT RIDGE   CLEAR     36  25  64 W7        30.43R WCI  30
BLYTHEVILLE    CLOUDY    40  33  76 N12       30.41S WCI  33
SEARCY         CLEAR     33  27  78 CALM      30.47R
STUTTGART      CLEAR     39  28  65 N7        30.46R WCI  34
PINE BLUFF     CLEAR     41  30  65 N8        30.46R
MONTICELLO     MOCLDY    45  33  63 N5        30.44R


...NORTH MISSISSIPPI...

CITY           SKY/WX    TMP DP  RH WIND       PRES   REMARKS
TUPELO         CLOUDY    44  31  60 N20G30    30.37R
TUNICA         PTCLDY    41  32  70 N10       30.44R
GREENWOOD      CLOUDY    46  34  62 N13G23    30.39R
COLUMBUS       CLOUDY    47  34  61 N16G25    30.34R
STARKVILLE     CLOUDY    46  36  66 NW7G16    30.34R
GOLDEN TRIANGL CLOUDY    46  36  66 N16G24    30.32R


...SOUTHEAST MISSOURI...

CITY           SKY/WX    TMP DP  RH WIND       PRES   REMARKS
WEST PLAINS    PTCLDY    33  25  72 NW6       30.42R WCI  28
POPLAR BLUFF   MOCLDY    39  28  64 N12       30.41R WCI  32
CAPE GIRARDEAU CLOUDY    39  29  67 NW10      30.41R WCI  32


...NORTHWEST ALABAMA...

CITY           SKY/WX    TMP DP  RH WIND       PRES   REMARKS
MUSCLE SHOALS  CLOUDY    44  29  55 N13G22    30.35R


...MIDDLE TENNESSEE...

CITY           SKY/WX    TMP DP  RH WIND       PRES   REMARKS
NASHVILLE      CLOUDY    41  31  67 NW10G20   30.33R
CLARKSVILLE    CLOUDY    38  34  85 NW9       30.35R WCI  31
COLUMBIA       CLOUDY    41  34  75 N7        30.31S


...WESTERN KENTUCKY...

CITY           SKY/WX    TMP DP  RH WIND       PRES   REMARKS
PADUCAH        CLOUDY    39  29  67 N9        30.38R WCI  33
FORT CAMPBELL  DRIZZLE   37  32  81 NW9       30.35R WCI  31


...CENTRAL ARKANSAS...

CITY           SKY/WX    TMP DP  RH WIND       PRES   REMARKS
LITTLE ROCK    PTCLDY    38  28  67 N7        30.46R WCI  33


SKY/WX REPORTED AS FAIR MEANS FEW OR NO CLOUDS BELOW
12 THOUSAND FEET.



USA.gov is the U.S. government's official web portal to all federal, state and local government web resources and services.